Date,TemperatureHighF,TemperatureAvgF,TemperatureLowF,DewpointHighF,DewpointAvgF,DewpointLowF,HumidityHigh,HumidityAvg,HumidityLow,PressureMaxIn,PressureMinIn,WindSpeedMaxMPH,WindSpeedAvgMPH,GustSpeedMaxMPH,PrecipitationSumIn
2013-6-1,90.0,77.9,67.0,70.0,64.5,57.0,84,65,44,29.91,29.77,7,1,14,0.00
2013-6-2,87.0,78.6,71.0,71.0,65.3,-99.9,83,67,53,29.83,29.65,7,3,17,0.00
2013-6-3,76.0,71.2,65.0,67.0,61.1,45.0,93,72,50,29.83,29.65,9,2,15,1.05
2013-6-4,74.0,64.3,53.0,48.0,42.7,35.0,70,48,30,30.03,29.80,9,3,16,0.08
2013-6-5,74.0,63.3,50.0,50.0,44.1,37.0,72,51,38,30.18,30.00,5,1,10,0.00
2013-6-6,70.0,61.8,55.0,57.0,50.4,43.0,90,67,48,30.09,29.94,7,2,13,0.13
2013-6-7,61.0,59.6,58.0,60.0,58.1,56.0,98,95,89,29.97,29.65,10,3,14,2.01
2013-6-8,76.0,64.7,56.0,64.0,58.4,55.0,98,82,59,29.97,29.59,9,3,15,0.96
2013-6-9,78.0,68.9,58.0,61.0,56.2,52.0,93,67,42,30.12,29.97,6,2,12,0.04
2013-6-10,69.0,63.8,61.0,64.0,60.2,55.0,98,89,72,30.12,29.80,7,1,13,0.76
2013-6-11,78.0,67.8,61.0,71.0,62.1,54.0,98,84,61,29.80,29.50,10,3,20,0.63
2013-6-12,73.0,67.3,61.0,55.0,51.8,48.0,75,58,43,29.74,29.59,13,5,25,0.04
2013-6-13,61.0,58.7,56.0,59.0,55.8,51.0,98,91,73,29.74,29.44,10,3,20,1.59
2013-6-14,72.0,60.7,53.0,60.0,54.7,51.0,98,82,53,29.83,29.50,15,3,23,1.42
2013-6-15,78.0,68.9,57.0,60.0,51.9,45.0,92,58,33,29.91,29.80,11,3,20,0.04
2013-6-16,77.0,66.8,56.0,62.0,55.8,49.0,84,69,51,29.91,29.65,9,1,17,0.00
2013-6-17,85.0,72.9,62.0,67.0,59.7,52.0,92,66,34,29.83,29.71,9,2,22,0.00
2013-6-18,80.0,67.3,60.0,68.0,60.4,54.0,90,79,61,29.85,29.74,10,2,15,0.29
2013-6-19,74.0,65.2,56.0,56.0,50.2,46.0,87,61,41,30.09,29.83,9,2,14,0.04
2013-6-20,79.0,64.6,54.0,57.0,51.5,48.0,85,65,38,30.24,30.09,6,1,12,0.00
2013-6-22,84.0,79.8,70.0,63.0,59.8,57.0,63,51,40,30.15,30.00,7,3,115,0.00
2013-6-23,89.0,77.6,67.0,70.0,63.1,57.0,81,62,35,30.12,29.91,9,2,58,0.00
2013-6-24,82.0,74.7,69.0,67.0,65.8,63.0,90,74,55,29.97,29.83,6,0,24,0.37
2013-6-25,87.0,77.9,67.0,77.0,68.6,65.0,98,75,55,29.91,29.68,9,2,20,0.45
2013-6-26,80.0,75.3,71.0,70.0,67.6,65.0,93,77,68,29.77,29.65,7,2,15,0.09
2013-6-27,84.0,73.8,66.0,74.0,68.6,65.0,98,85,65,29.77,29.41,8,1,115,0.63
2013-6-28,84.0,76.4,71.0,71.0,67.5,63.0,98,76,51,29.44,29.35,7,3,58,0.96
2013-6-29,84.0,75.2,67.0,69.0,65.0,61.0,94,73,48,29.50,29.38,5,1,9,0.04
2013-6-30,85.0,74.1,67.0,75.0,68.6,64.0,96,83,64,29.83,29.50,9,2,23,0.88